Regional Weather Roundup
Issued by NWS Grand Forks, ND

Home | Current Version | Previous Version | Graphics & Text | Print | Product List | Glossary On
Versions: 1 2 3 4 5 6 7 8 9 10 11 12 13 14 15 16 17 18 19 20 21 22 23 24 25 26 27 28 29 30 31 32 33 34 35 36 37 38 39 40 41 42 43 44 45 46 47 48 49 50
000
ASUS43 KFGF 030010
RWRFGF
PRAIRIE TO PINES  WEATHER ROUNDUP
NATIONAL WEATHER SERVICE EASTERN NORTH DAKOTA/GRAND FORKS ND
700 PM CDT MON MAY 02 2016

 **SATELLITE DATA USED TO AUGMENT SKY COVER AT AUTOMATED STATIONS**
 *****  WEATHER ACROSS EASTERN NORTH DAKOTA  *****

CITY           SKY/WX    TMP DP  RH WIND       PRES   REMARKS
GRAND FORKS    PTSUNNY   70  30  22 CALM      29.94S
6HR MIN TEMP:  67; 6HR MAX TEMP:  72;

GRAND FRKS AFB PTSUNNY   70  27  19 W6        29.95S
DEVILS LAKE    SUNNY     65  33  30 SW6       29.99S
6HR MIN TEMP:  62; 6HR MAX TEMP:  66;

FARGO          MOSUNNY   69  31  24 S3        29.95S
WAHPETON ARPT  CLOUDY    68  27  21 SW5       29.97R
$$

 ***** WEATHER ACROSS CENTRAL AND WESTERN NORTH DAKOTA  *****

CITY           SKY/WX    TMP DP  RH WIND       PRES   REMARKS
BISMARCK       SUNNY     64  41  42 NE8       29.97S
6HR MIN TEMP:  56; 6HR MAX TEMP:  66;

MINOT          SUNNY     72  33  24 NE8       29.97S
6HR MIN TEMP:  69; 6HR MAX TEMP:  74;

JAMESTOWN      SUNNY     59  38  45 S14       29.99R
6HR MIN TEMP:  55; 6HR MAX TEMP:  61;

MINOT AFB      SUNNY     68  36  30 N9        29.96S
GARRISON         N/A     67  36  31 VRB5      29.98R
WILLISTON      SUNNY     73  26  17 N13       29.99R
6HR MIN TEMP:  71; 6HR MAX TEMP:  75;

DICKINSON      SUNNY     65  31  28 NE16      29.98R
6HR MIN TEMP:  65; 6HR MAX TEMP:  69;

HETTINGER      SUNNY     65  32  29 N17G28    30.00R
6HR MIN TEMP:  63; 6HR MAX TEMP:  71; 6HR PCP: TRACE;

$$

 *****  OTHER AIRPORT OBSERVATIONS IN OUR AREA  *****

CITY           SKY/WX    TMP DP  RH WIND       PRES   REMARKS
WALHALLA       FAIR      68  32  26 SW7       29.94F
GRAFTON AIRPOR FAIR      70  28  21 CALM      29.96S
VALLEY CITY AR FAIR      61  37  41 SW6       30.02R
CANDO          FAIR      66  32  28 SW6       30.00S
CAVALIER APRT  FAIR      68  32  26 SW7       29.94F
GWINNER        FAIR      64  36  34 W8        29.99R
SHEYENNE NWR     N/A     66  37  34 W7        29.95S
ROLLA          FAIR      64  32  29 S7        29.99S
 ***** THE ABOVE OBSERVATIONS ARE NON NWS ARE NOT QUALITY
       CONTROLLED AND MAY MIS-REPORT RAIN FOR SNOW...
$$

  *****  WEATHER ACROSS NORTHERN MINNESOTA  *****

CITY           SKY/WX    TMP DP  RH WIND       PRES   REMARKS
FLAG ISLAND    MOSUNNY   61  32  33 SE3       29.93F
WARROAD        SUNNY     61  36  39 E3        29.95F
ROSEAU         MOSUNNY   68  27  21 W6        29.95S
HALLOCK        MOSUNNY   70  21  16 NW9       29.94S
THF RVR FALLS  SUNNY     68  23  18 CALM      29.96S
6HR MIN TEMP:  64; 6HR MAX TEMP:  70;

BAUDETTE       SUNNY     64  28  25 N10       29.95R
6HR MIN TEMP:  64; 6HR MAX TEMP:  69;

WASKISH        SUNNY     64  28  25 CALM      29.95F
CROOKSTON      SUNNY     70  25  18 N5        29.95S
STEPHEN NDAWN    N/A     70  27  19 NW5         N/A
GREENBUSH NDAW   N/A     68  30  24 W6          N/A
$$
  *****  WEATHER ACROSS CENTRAL AND WEST MINNESOTA  *****

CITY           SKY/WX    TMP DP  RH WIND       PRES   REMARKS
FOSSTON        SUNNY     66  25  20 W6        29.97R
BEMIDJI        SUNNY     66  27  23 CALM      29.95S
PARK RAPIDS    SUNNY     66  27  23 SW7       29.96F
6HR MIN TEMP:  64; 6HR MAX TEMP:  69;

ELBOW LAKE     FAIR      63  31  30 CALM      29.98S
6HR MIN TEMP:  61; 6HR MAX TEMP:  68;

WADENA         MOSUNNY   64  30  27 W5        29.98S
DETROIT LAKES  SUNNY     64  27  24 W6        29.99S
MOORHEAD       SUNNY     68  32  26 W9        29.97R
FERGUS FALLS   PTSUNNY   64  32  29 CALM      29.95R
MORRIS MN      MOSUNNY   66  30  26 S5        29.97S
STAPLES        CLOUDY    63  28  27 CALM      29.98S
$$
  *****  WEATHER ELSEWHERE ACROSS MINNESOTA  *****

CITY           SKY/WX    TMP DP  RH WIND       PRES   REMARKS
DULUTH         MOSUNNY   61  30  31 S10       29.97F
6HR MIN TEMP:  60; 6HR MAX TEMP:  64;

INTRNTL FALLS  SUNNY     67  26  21 W6        29.93F
6HR MIN TEMP:  62; 6HR MAX TEMP:  68;

ELY            MOSUNNY   63  27  25 W6        29.95S
CLOQUET        MOSUNNY   63  27  25 CALM      29.97F
WHEATON        PTSUNNY   70  34  26 S6        29.98S
BRAINERD       SUNNY     63  32  31 S7        29.98F
6HR MIN TEMP:  61; 6HR MAX TEMP:  67;

HIBBING        SUNNY     63  28  26 W5        29.95S
6HR MIN TEMP:  60; 6HR MAX TEMP:  66;

ALEXANDRIA     SUNNY     63  28  26 S5        29.99S
6HR MIN TEMP:  62; 6HR MAX TEMP:  67;

SAINT CLOUD    PTSUNNY   64  32  30 SW5       29.99S
6HR MIN TEMP:  63; 6HR MAX TEMP:  68;

MINNEAPOLIS    MOSUNNY   66  29  24 W7        30.00S
6HR MIN TEMP:  62; 6HR MAX TEMP:  67;

$$

  *****  WEATHER ACROSS SOUTH DAKOTA  *****

CITY           SKY/WX    TMP DP  RH WIND       PRES   REMARKS
SIOUX FALLS    PTSUNNY   61  37  41 CALM      30.01F
6HR MIN TEMP:  60; 6HR MAX TEMP:  63;

BROOKINGS      SUNNY     62  32  32 SW6       29.99F
WATERTOWN      SUNNY     60  33  36 S6        29.98S
6HR MIN TEMP:  60; 6HR MAX TEMP:  66;

HURON          CLOUDY    58  45  62 W9        29.99S
6HR MIN TEMP:  58; 6HR MAX TEMP:  66; 6HR PCP: TRACE;

SISSETON         N/A     64  32  30 N5        29.96R
ABERDEEN       SUNNY     61  39  44 W3        29.99S
6HR MIN TEMP:  57; 6HR MAX TEMP:  65; 6HR PCP: TRACE;

MITCHELL       PTSUNNY   62  40  44 S6        30.00S
PIERRE         CLOUDY    56  42  59 W14       29.97F
6HR MIN TEMP:  55; 6HR MAX TEMP:  65; 6HR PCP: TRACE;

MOBRIDGE       SUNNY     64  42  44 NE3       29.94S
RAPID CITY     LGT RAIN  56  43  61 N12       29.98F
6HR MIN TEMP:  56; 6HR MAX TEMP:  67; 6HR PCP: TRACE;

$$

  *****  SOME WEATHER IN NEARBY STATES *****

CITY           SKY/WX    TMP DP  RH WIND       PRES   REMARKS
GLASGOW MT     SUNNY     77  36  22 N13       30.00F
6HR MIN TEMP:  69; 6HR MAX TEMP:  77;

GREAT FALLS MT SUNNY     72  28  19 VRB3      30.10S
6HR MIN TEMP:  62; 6HR MAX TEMP:  72;

CHEYENNE WY    SUNNY     55  18  23 NW22G30   30.12S
6HR MIN TEMP:  50; 6HR MAX TEMP:  55;

SCOTTSBLUFF NE CLOUDY    64  30  27 N18G25    30.01S
6HR MIN TEMP:  57; 6HR MAX TEMP:  66;

OMAHA NE       PTSUNNY   61  40  45 N3        30.04F
6HR MIN TEMP:  60; 6HR MAX TEMP:  66;

DES MOINES IA  MOSUNNY   60  37  42 E6        30.04S
6HR MIN TEMP:  60; 6HR MAX TEMP:  65; 6HR PCP: TRACE;

DAVENPORT IA   CLOUDY    57  44  62 CALM      30.03S
6HR MIN TEMP:  57; 6HR MAX TEMP:  61;

CHICAGO IL     MOCLDY    55  31  39 NE9       30.01S
6HR MIN TEMP:  55; 6HR MAX TEMP:  59;

EAU CLAIRE WI  SUNNY     63  31  30 CALM      29.99F
6HR MIN TEMP:  61; 6HR MAX TEMP:  66;

LA CROSSE WI   CLOUDY    64  33  31 SW5       30.00F
6HR MIN TEMP:  63; 6HR MAX TEMP:  68;

$$

  *****  SOME NATIONAL WEATHER *****

CITY           SKY/WX    TMP DP  RH WIND       PRES   REMARKS
LA GUARDIA NY  MOCLDY    60  51  72 S3        29.93R
6HR MIN TEMP:  55; 6HR MAX TEMP:  62;

RALEIGH NC     MOCLDY    70  68  93 SE6       29.90F
6HR MIN TEMP:  67; 6HR MAX TEMP:  87; 6HR PCP:  0.09;

ATLANTA GA     CLOUDY    77  62  59 SW7       29.92R
6HR MIN TEMP:  77; 6HR MAX TEMP:  83;

NEW ORLEANS LA CLOUDY    78  70  76 W5        29.89F
6HR MIN TEMP:  77; 6HR MAX TEMP:  81; 6HR PCP: TRACE;

OKLAHOMA CITY  PTSUNNY   60  42  51 N12       30.10R
6HR MIN TEMP:  56; 6HR MAX TEMP:  63;

ALBUQUERQUE NM MOSUNNY   62  30  29 CALM      30.14F
6HR MIN TEMP:  51; 6HR MAX TEMP:  63;

SALT LAKE CITY MOSUNNY   67  29  24 W16       30.15S
6HR MIN TEMP:  63; 6HR MAX TEMP:  69;

LOS ANGELES CA MOSUNNY   64  54  69 W20       29.96F
6HR MIN TEMP:  63; 6HR MC1F1C2F2C3F3C4F4C5F5C6F6C7F7C8F8C9F9CaFaCbFbCcFcCd!



USA.gov is the U.S. government's official web portal to all federal, state and local government web resources and services.